{"data":{"norad_id":46326,"epoch":"2026-06-15T13:56:27.798720Z","epoch_age_seconds":8395743,"freshness":"OLD","line1":"1 46326U 20062B   26166.58087730  .06741012  12281-4  80525-3 0  9992","line2":"2 46326  53.0183 198.6201 0007138 294.2691  65.7607 16.35644660320447","mean_motion":16.3564466,"eccentricity":0.0007138,"inclination_deg":53.0183,"raan_deg":198.6201,"arg_perigee_deg":294.2691,"mean_anomaly_deg":65.7607,"bstar":0.00080525,"rev_number":32044,"period_min":88.03868194697,"perigee_km":172.73466037956,"apogee_km":182.09336500528,"semimajor_km":6555.5510126924,"source":"CELESTRAK","updated_at":"2026-06-16T09:00:40.066379Z"}}